Torna al catalogo

STARLINK-4635

AttivoComunicazioniVLEO
NORAD 53966·PAYLOAD·🇺🇸 United States

Lanciato Oct 5, 2022 da Vandenberg Space Force Base

Loading…

Prossimi Passaggi (prossime 24 ore)

TLE

AggiornatoSource: CelesTrak SupGP

Epoca: Sep 14, 2026, 21:17 UTC

1 53966C 22125C   26257.88729167  .00017204  00000+0  49263-3 0  2578
2 53966  53.1579  87.8726 0001083  84.8625 294.2295 15.35364903    17

Traccia STARLINK-4635 in tempo reale con AllMySat

Download on the App Store